Location: Oberkirch
(48.5323°N, 8.0787°E)
Time: 01:02:36
(UTC+00:00)

Tiros 1 - Pass Details

Date: 20 February 2026
Orbit: 618 x 649 km, 48.4° (Epoch: 9 March)

Event Time Altitude Azimuth Distance (km) Brightness Sun altitude
Rises 07:23:10 0° 225° (SW) 2,912 10.3 7.9°
Reaches altitude 10° 07:25:37 10° 217° (SW) 2,002 9.6 8.3°
Maximum altitude 07:29:50 37° 150° (SSE) 979 9.0 8.9°
Drops below altitude 10° 07:34:03 10° 84° (E) 1,992 10.7 9.5°
Sets 07:36:28 0° 76° (ENE) 2,897 11.3 9.9°
